Time,TemperatureF,DewpointF,PressureIn,WindDirection,WindDirectionDegrees,WindSpeedMPH,WindSpeedGustMPH,Humidity,HourlyPrecipIn,Conditions,Clouds,dailyrainin,SolarRadiationWatts/m^2,SoftwareType,DateUTC
2013-06-15 00:03:00,56.6,53.4,30.06,NNE,16,0.0,0.0,89,0.00,,,0.00,0,Wunderground v.1.15,2013-06-15 04:03:00,
2013-06-15 00:08:00,56.5,53.6,30.05,NNE,16,0.0,0.0,90,0.00,,,0.00,0,Wunderground v.1.15,2013-06-15 04:08:00,
2013-06-15 00:13:00,56.4,53.5,30.05,NNE,16,0.0,0.0,90,0.00,,,0.00,0,Wunderground v.1.15,2013-06-15 04:13:00,
2013-06-15 00:18:00,56.2,53.3,30.05,NNE,16,0.0,0.0,90,0.00,,,0.00,0,Wunderground v.1.15,2013-06-15 04:18:00,
2013-06-15 00:23:00,56.5,53.9,30.06,NNE,16,0.0,0.0,91,0.00,,,0.00,0,Wunderground v.1.15,2013-06-15 04:23:00,
2013-06-15 00:28:00,56.6,54.0,30.06,NNE,16,0.0,0.0,91,0.00,,,0.00,0,Wunderground v.1.15,2013-06-15 04:28:00,
2013-06-15 00:33:00,56.7,54.1,30.06,NNE,16,0.0,1.0,91,0.00,,,0.00,0,Wunderground v.1.15,2013-06-15 04:33:00,
2013-06-15 00:38:00,56.5,53.9,30.05,NNE,16,0.0,1.0,91,0.00,,,0.00,0,Wunderground v.1.15,2013-06-15 04:38:00,
2013-06-15 00:43:00,56.3,53.7,30.05,NNE,16,0.0,1.0,91,0.00,,,0.00,0,Wunderground v.1.15,2013-06-15 04:43:00,
2013-06-15 00:48:00,56.4,54.1,30.05,NNE,16,0.0,1.0,92,0.00,,,0.00,0,Wunderground v.1.15,2013-06-15 04:48:00,
2013-06-15 00:53:00,56.4,53.8,30.05,NNE,16,0.0,1.0,91,0.00,,,0.00,0,Wunderground v.1.15,2013-06-15 04:53:00,
2013-06-15 00:58:00,56.4,53.8,30.04,NNE,16,0.0,0.0,91,0.00,,,0.00,0,Wunderground v.1.15,2013-06-15 04:58:00,
2013-06-15 01:08:00,56.1,53.8,30.04,NNE,16,0.0,0.0,92,0.00,,,0.00,0,Wunderground v.1.15,2013-06-15 05:08:00,
2013-06-15 01:13:00,56.1,53.8,30.04,NNE,16,0.0,0.0,92,0.00,,,0.00,0,Wunderground v.1.15,2013-06-15 05:13:00,
2013-06-15 01:18:00,56.0,53.7,30.04,NNE,16,0.0,0.0,92,0.00,,,0.00,0,Wunderground v.1.15,2013-06-15 05:18:00,
2013-06-15 01:23:00,55.9,53.6,30.04,NNE,16,0.0,0.0,92,0.00,,,0.00,0,Wunderground v.1.15,2013-06-15 05:23:00,
2013-06-15 01:28:00,55.8,53.8,30.04,NNE,16,0.0,0.0,93,0.00,,,0.00,0,Wunderground v.1.15,2013-06-15 05:28:00,
2013-06-15 01:33:00,55.8,53.8,30.04,NNE,16,0.0,0.0,93,0.00,,,0.00,0,Wunderground v.1.15,2013-06-15 05:33:00,
2013-06-15 01:43:00,55.7,53.7,30.04,NNE,16,0.0,0.0,93,0.00,,,0.00,0,Wunderground v.1.15,2013-06-15 05:43:00,
2013-06-15 01:48:00,55.5,53.8,30.04,NNE,16,0.0,0.0,94,0.00,,,0.00,0,Wunderground v.1.15,2013-06-15 05:48:00,
2013-06-15 01:53:00,55.8,54.1,30.04,NNE,16,0.0,0.0,94,0.00,,,0.00,0,Wunderground v.1.15,2013-06-15 05:53:00,
2013-06-15 01:58:00,55.7,54.0,30.04,NNE,16,0.0,0.0,94,0.00,,,0.00,0,Wunderground v.1.15,2013-06-15 05:58:00,
2013-06-15 02:08:00,55.4,53.7,30.05,NNE,16,0.0,0.0,94,0.00,,,0.00,0,Wunderground v.1.15,2013-06-15 06:08:00,
2013-06-15 02:13:00,55.4,53.7,30.05,NNE,16,0.0,0.0,94,0.00,,,0.00,0,Wunderground v.1.15,2013-06-15 06:13:00,
2013-06-15 02:18:00,55.2,53.5,30.05,NNE,16,0.0,0.0,94,0.00,,,0.00,0,Wunderground v.1.15,2013-06-15 06:18:00,
2013-06-15 02:28:00,55.2,53.8,30.05,NNE,16,0.0,0.0,95,0.00,,,0.00,0,Wunderground v.1.15,2013-06-15 06:28:00,
2013-06-15 02:38:00,55.2,53.8,30.05,NNE,16,0.0,0.0,95,0.00,,,0.00,0,Wunderground v.1.15,2013-06-15 06:38:00,
2013-06-15 02:43:00,55.1,53.7,30.05,NNE,16,0.0,0.0,95,0.00,,,0.00,0,Wunderground v.1.15,2013-06-15 06:43:00,
2013-06-15 02:53:00,55.0,53.6,30.05,NNE,16,0.0,0.0,95,0.00,,,0.00,0,Wunderground v.1.15,2013-06-15 06:53:00,
2013-06-15 02:58:00,54.9,53.5,30.05,NNE,16,0.0,0.0,95,0.00,,,0.00,0,Wunderground v.1.15,2013-06-15 06:58:00,
2013-06-15 03:08:00,55.1,53.7,30.05,NNE,16,0.0,0.0,95,0.00,,,0.00,0,Wunderground v.1.15,2013-06-15 07:08:00,
2013-06-15 03:13:00,55.2,54.1,30.06,NNE,16,0.0,0.0,96,0.00,,,0.00,0,Wunderground v.1.15,2013-06-15 07:13:00,
2013-06-15 03:18:00,55.7,54.6,30.06,NNE,16,0.0,0.0,96,0.00,,,0.00,0,Wunderground v.1.15,2013-06-15 07:18:00,
2013-06-15 03:23:00,55.8,54.7,30.05,NNE,16,0.0,0.0,96,0.00,,,0.00,0,Wunderground v.1.15,2013-06-15 07:23:00,
2013-06-15 03:28:00,55.6,54.2,30.06,NNE,16,0.0,0.0,95,0.00,,,0.00,0,Wunderground v.1.15,2013-06-15 07:28:00,
2013-06-15 03:33:00,55.6,54.5,30.06,NNE,16,0.0,0.0,96,0.00,,,0.00,0,Wunderground v.1.15,2013-06-15 07:33:00,
2013-06-15 03:38:00,55.7,54.6,30.06,NNE,16,0.0,0.0,96,0.00,,,0.00,0,Wunderground v.1.15,2013-06-15 07:38:00,
2013-06-15 03:48:00,55.3,53.9,30.05,NNE,16,0.0,0.0,95,0.00,,,0.00,0,Wunderground v.1.15,2013-06-15 07:48:00,
2013-06-15 03:53:00,55.3,54.2,30.06,NNE,16,0.0,0.0,96,0.00,,,0.00,0,Wunderground v.1.15,2013-06-15 07:53:00,
2013-06-15 03:58:00,55.5,54.4,30.06,NNE,16,0.0,0.0,96,0.00,,,0.00,0,Wunderground v.1.15,2013-06-15 07:58:00,
2013-06-15 04:08:00,55.9,54.8,30.06,NNE,16,0.0,0.0,96,0.00,,,0.00,0,Wunderground v.1.15,2013-06-15 08:08:00,
2013-06-15 04:13:00,55.9,54.8,30.06,NNE,16,0.0,0.0,96,0.00,,,0.00,0,Wunderground v.1.15,2013-06-15 08:13:00,
2013-06-15 04:18:00,55.7,54.6,30.06,NNE,16,0.0,0.0,96,0.00,,,0.00,0,Wunderground v.1.15,2013-06-15 08:18:00,
2013-06-15 04:23:00,55.7,54.6,30.06,NNE,16,0.0,0.0,96,0.00,,,0.00,0,Wunderground v.1.15,2013-06-15 08:23:00,
2013-06-15 04:28:00,55.7,54.6,30.06,NNE,16,0.0,0.0,96,0.00,,,0.00,0,Wunderground v.1.15,2013-06-15 08:28:00,
2013-06-15 04:33:00,56.3,55.5,30.06,NNE,16,0.0,0.0,97,0.00,,,0.00,0,Wunderground v.1.15,2013-06-15 08:33:00,
2013-06-15 04:38:00,56.2,55.1,30.06,NNE,16,0.0,0.0,96,0.00,,,0.00,0,Wunderground v.1.15,2013-06-15 08:38:00,
2013-06-15 04:48:00,56.6,55.5,30.06,NNE,16,0.0,0.0,96,0.00,,,0.00,0,Wunderground v.1.15,2013-06-15 08:48:00,
2013-06-15 04:53:00,56.9,55.8,30.06,NNE,16,0.0,0.0,96,0.00,,,0.00,0,Wunderground v.1.15,2013-06-15 08:53:00,
2013-06-15 04:58:00,57.4,56.0,30.06,NNE,16,0.0,0.0,95,0.00,,,0.00,0,Wunderground v.1.15,2013-06-15 08:58:00,
2013-06-15 05:08:00,57.2,55.2,30.06,NNE,16,0.0,0.0,93,0.00,,,0.00,0,Wunderground v.1.15,2013-06-15 09:08:00,
2013-06-15 05:13:00,57.3,55.3,30.06,NNE,16,0.0,0.0,93,0.00,,,0.00,0,Wunderground v.1.15,2013-06-15 09:13:00,
2013-06-15 05:18:00,57.0,54.7,30.06,NNE,16,0.0,0.0,92,0.00,,,0.00,0,Wunderground v.1.15,2013-06-15 09:18:00,
2013-06-15 05:23:00,56.7,54.4,30.05,NNE,16,0.0,0.0,92,0.00,,,0.00,0,Wunderground v.1.15,2013-06-15 09:23:00,
2013-06-15 05:28:00,56.4,54.1,30.05,NNE,16,0.0,0.0,92,0.00,,,0.00,0,Wunderground v.1.15,2013-06-15 09:28:00,
2013-06-15 05:33:00,56.1,53.8,30.05,NNE,16,0.0,2.0,92,0.00,,,0.00,0,Wunderground v.1.15,2013-06-15 09:33:00,
2013-06-15 05:38:00,55.9,53.9,30.05,NNE,16,0.0,2.0,93,0.00,,,0.00,0,Wunderground v.1.15,2013-06-15 09:38:00,
2013-06-15 05:43:00,55.8,53.8,30.06,NNE,16,0.0,2.0,93,0.00,,,0.00,0,Wunderground v.1.15,2013-06-15 09:43:00,
2013-06-15 05:53:00,55.5,53.5,30.06,NNE,16,0.0,2.0,93,0.00,,,0.00,0,Wunderground v.1.15,2013-06-15 09:53:00,
2013-06-15 05:58:00,55.4,53.7,30.06,NNE,16,0.0,0.0,94,0.00,,,0.00,0,Wunderground v.1.15,2013-06-15 09:58:00,
2013-06-15 06:08:00,55.2,53.5,30.06,NNE,16,0.0,0.0,94,0.00,,,0.00,9,Wunderground v.1.15,2013-06-15 10:08:00,
2013-06-15 06:13:00,55.2,53.5,30.07,NNE,16,0.0,0.0,94,0.00,,,0.00,12,Wunderground v.1.15,2013-06-15 10:13:00,
2013-06-15 06:23:00,55.1,53.7,30.07,NW,313,0.0,0.0,95,0.00,,,0.00,14,Wunderground v.1.15,2013-06-15 10:23:00,
2013-06-15 06:28:00,55.3,53.9,30.07,NW,313,0.0,0.0,95,0.00,,,0.00,14,Wunderground v.1.15,2013-06-15 10:28:00,
2013-06-15 06:33:00,55.3,53.9,30.07,NW,313,0.0,1.0,95,0.00,,,0.00,12,Wunderground v.1.15,2013-06-15 10:33:00,
2013-06-15 06:38:00,55.5,54.1,30.07,NW,313,0.0,1.0,95,0.00,,,0.00,18,Wunderground v.1.15,2013-06-15 10:38:00,
2013-06-15 06:43:00,55.7,54.3,30.08,SW,230,0.0,1.0,95,0.00,,,0.01,21,Wunderground v.1.15,2013-06-15 10:43:00,
2013-06-15 06:53:00,56.2,55.1,30.08,SW,230,0.0,1.0,96,0.00,,,0.01,35,Wunderground v.1.15,2013-06-15 10:53:00,
2013-06-15 06:58:00,56.5,55.4,30.08,SW,230,0.0,0.0,96,0.00,,,0.01,44,Wunderground v.1.15,2013-06-15 10:58:00,
2013-06-15 07:08:00,57.1,56.0,30.08,SW,230,0.0,0.0,96,0.00,,,0.01,63,Wunderground v.1.15,2013-06-15 11:08:00,
2013-06-15 07:18:00,57.8,56.7,30.08,SW,230,0.0,0.0,96,0.00,,,0.01,79,Wunderground v.1.15,2013-06-15 11:18:00,
2013-06-15 07:28:00,58.5,57.7,30.09,SW,230,0.0,0.0,97,0.00,,,0.01,98,Wunderground v.1.15,2013-06-15 11:28:00,
2013-06-15 07:33:00,59.0,58.2,30.09,SW,230,0.0,2.0,97,0.00,,,0.01,114,Wunderground v.1.15,2013-06-15 11:33:00,
2013-06-15 07:43:00,59.6,58.7,30.09,SW,230,0.0,2.0,97,0.00,,,0.01,118,Wunderground v.1.15,2013-06-15 11:43:00,
2013-06-15 07:48:00,60.0,59.1,30.10,SE,132,0.0,2.0,97,0.00,,,0.01,132,Wunderground v.1.15,2013-06-15 11:48:00,
2013-06-15 07:58:00,61.0,59.9,30.09,East,93,0.0,0.0,96,0.00,,,0.01,265,Wunderground v.1.15,2013-06-15 11:58:00,
2013-06-15 08:08:00,61.8,60.4,30.09,East,93,0.0,0.0,95,0.00,,,0.01,107,Wunderground v.1.15,2013-06-15 12:08:00,
2013-06-15 08:13:00,62.1,60.4,30.09,East,93,0.0,0.0,94,0.00,,,0.01,116,Wunderground v.1.15,2013-06-15 12:13:00,
2013-06-15 08:18:00,62.4,60.7,30.09,East,93,0.0,0.0,94,0.00,,,0.01,253,Wunderground v.1.15,2013-06-15 12:18:00,
2013-06-15 08:23:00,63.1,61.3,30.09,East,93,0.0,0.0,94,0.00,,,0.01,229,Wunderground v.1.15,2013-06-15 12:23:00,
2013-06-15 08:28:00,63.6,61.2,30.09,East,93,0.0,0.0,92,0.00,,,0.01,229,Wunderground v.1.15,2013-06-15 12:28:00,
2013-06-15 08:38:00,64.8,61.8,30.09,East,93,0.0,0.0,90,0.00,,,0.01,448,Wunderground v.1.15,2013-06-15 12:38:00,
2013-06-15 08:48:00,66.2,61.2,30.08,South,186,1.0,2.0,84,0.00,,,0.01,346,Wunderground v.1.15,2013-06-15 12:48:00,
2013-06-15 08:58:00,67.4,60.7,30.08,South,182,2.0,2.0,79,0.00,,,0.01,167,Wunderground v.1.15,2013-06-15 12:58:00,
2013-06-15 09:08:00,68.2,61.4,30.08,SSW,212,1.0,5.0,79,0.00,,,0.01,427,Wunderground v.1.15,2013-06-15 13:08:00,
2013-06-15 09:18:00,69.2,60.9,30.07,South,187,2.0,2.0,75,0.00,,,0.01,436,Wunderground v.1.15,2013-06-15 13:18:00,
2013-06-15 09:23:00,69.3,60.7,30.07,SSW,207,3.0,3.0,74,0.00,,,0.01,438,Wunderground v.1.15,2013-06-15 13:23:00,
2013-06-15 09:28:00,69.5,60.8,30.07,SSW,192,3.0,3.0,74,0.00,,,0.01,483,Wunderground v.1.15,2013-06-15 13:28:00,
2013-06-15 09:33:00,69.8,61.5,30.07,SSW,213,2.0,3.0,75,0.00,,,0.01,334,Wunderground v.1.15,2013-06-15 13:33:00,
2013-06-15 09:38:00,70.0,61.3,30.07,South,189,2.0,2.0,74,0.00,,,0.01,462,Wunderground v.1.15,2013-06-15 13:38:00,
2013-06-15 09:43:00,70.3,62.4,30.07,WSW,248,2.0,2.0,76,0.00,,,0.01,510,Wunderground v.1.15,2013-06-15 13:43:00,
2013-06-15 09:48:00,70.7,62.4,30.07,SW,225,1.0,2.0,75,0.00,,,0.01,538,Wunderground v.1.15,2013-06-15 13:48:00,
2013-06-15 09:53:00,71.1,62.0,30.07,SW,217,2.0,2.0,73,0.00,,,0.01,541,Wunderground v.1.15,2013-06-15 13:53:00,
2013-06-15 09:58:00,71.5,61.6,30.07,South,190,2.0,2.0,71,0.00,,,0.01,605,Wunderground v.1.15,2013-06-15 13:58:00,
2013-06-15 10:08:00,72.0,62.9,30.06,WSW,244,3.0,3.0,73,0.00,,,0.01,640,Wunderground v.1.15,2013-06-15 14:08:00,
2013-06-15 10:13:00,72.5,63.4,30.06,SW,225,2.0,5.0,73,0.00,,,0.01,656,Wunderground v.1.15,2013-06-15 14:13:00,
2013-06-15 10:18:00,72.8,62.0,30.06,South,190,2.0,2.0,69,0.00,,,0.01,657,Wunderground v.1.15,2013-06-15 14:18:00,
2013-06-15 10:23:00,73.3,63.3,30.06,SSW,211,2.0,4.0,71,0.00,,,0.01,633,Wunderground v.1.15,2013-06-15 14:23:00,
2013-06-15 10:28:00,73.5,61.4,30.06,WSW,250,2.0,2.0,66,0.00,,,0.01,628,Wunderground v.1.15,2013-06-15 14:28:00,
2013-06-15 10:38:00,73.8,60.4,30.05,SW,225,3.0,8.0,63,0.00,,,0.01,724,Wunderground v.1.15,2013-06-15 14:38:00,
2013-06-15 10:43:00,74.1,61.6,30.05,WSW,245,4.0,8.0,65,0.00,,,0.01,684,Wunderground v.1.15,2013-06-15 14:43:00,
2013-06-15 10:48:00,74.3,60.9,30.04,WSW,256,4.0,8.0,63,0.00,,,0.01,703,Wunderground v.1.15,2013-06-15 14:48:00,
2013-06-15 10:53:00,74.4,61.0,30.04,West,280,3.0,8.0,63,0.00,,,0.01,668,Wunderground v.1.15,2013-06-15 14:53:00,
2013-06-15 10:58:00,74.6,61.2,30.04,WSW,253,3.0,3.0,63,0.00,,,0.01,647,Wunderground v.1.15,2013-06-15 14:58:00,
2013-06-15 11:08:00,74.6,61.2,30.04,WSW,254,3.0,3.0,63,0.00,,,0.01,710,Wunderground v.1.15,2013-06-15 15:08:00,
2013-06-15 11:13:00,74.9,62.3,30.04,West,267,2.0,3.0,65,0.00,,,0.01,772,Wunderground v.1.15,2013-06-15 15:13:00,
2013-06-15 11:18:00,75.4,61.5,30.04,South,188,1.0,4.0,62,0.00,,,0.01,585,Wunderground v.1.15,2013-06-15 15:18:00,
2013-06-15 11:23:00,75.2,60.8,30.03,West,261,3.0,4.0,61,0.00,,,0.02,654,Wunderground v.1.15,2013-06-15 15:23:00,
2013-06-15 11:28:00,75.3,61.4,30.03,SSE,149,3.0,3.0,62,0.00,,,0.02,817,Wunderground v.1.15,2013-06-15 15:28:00,
2013-06-15 11:33:00,75.5,61.6,30.03,WSW,257,2.0,8.0,62,0.00,,,0.02,694,Wunderground v.1.15,2013-06-15 15:33:00,
2013-06-15 11:43:00,75.2,61.3,30.03,SW,225,2.0,8.0,62,0.00,,,0.02,413,Wunderground v.1.15,2013-06-15 15:43:00,
2013-06-15 11:48:00,74.8,61.4,30.02,SSW,196,3.0,8.0,63,0.00,,,0.02,471,Wunderground v.1.15,2013-06-15 15:48:00,
2013-06-15 11:53:00,74.8,62.2,30.02,SW,227,3.0,8.0,65,0.00,,,0.02,452,Wunderground v.1.15,2013-06-15 15:53:00,
2013-06-15 11:58:00,74.9,61.9,30.02,SW,229,2.0,2.0,64,0.00,,,0.02,524,Wunderground v.1.15,2013-06-15 15:58:00,
2013-06-15 12:08:00,75.1,62.1,30.01,South,185,3.0,5.0,64,0.00,,,0.02,499,Wunderground v.1.15,2013-06-15 16:08:00,
2013-06-15 12:13:00,75.1,62.1,30.01,SW,227,2.0,5.0,64,0.00,,,0.02,429,Wunderground v.1.15,2013-06-15 16:13:00,
2013-06-15 12:23:00,75.5,62.0,30.01,SSW,202,2.0,3.0,63,0.00,,,0.02,568,Wunderground v.1.15,2013-06-15 16:23:00,
2013-06-15 12:28:00,75.7,61.8,30.01,WSW,257,3.0,3.0,62,0.00,,,0.02,847,Wunderground v.1.15,2013-06-15 16:28:00,
2013-06-15 12:38:00,76.1,62.6,30.01,South,182,2.0,9.0,63,0.00,,,0.02,601,Wunderground v.1.15,2013-06-15 16:38:00,
2013-06-15 12:48:00,76.7,62.2,30.01,SW,225,2.0,2.0,61,0.00,,,0.02,612,Wunderground v.1.15,2013-06-15 16:48:00,
2013-06-15 12:53:00,77.2,63.6,30.01,SW,227,2.0,4.0,63,0.00,,,0.02,925,Wunderground v.1.15,2013-06-15 16:53:00,
2013-06-15 12:58:00,77.6,61.7,30.01,South,178,2.0,6.0,58,0.00,,,0.02,935,Wunderground v.1.15,2013-06-15 16:58:00,
2013-06-15 13:08:00,77.3,60.4,30.01,WSW,255,3.0,3.0,56,0.00,,,0.02,357,Wunderground v.1.15,2013-06-15 17:08:00,
2013-06-15 13:13:00,76.9,61.0,30.01,WSW,240,2.0,3.0,58,0.00,,,0.02,724,Wunderground v.1.15,2013-06-15 17:13:00,
2013-06-15 13:23:00,76.8,60.9,30.01,SW,220,2.0,2.0,58,0.00,,,0.02,745,Wunderground v.1.15,2013-06-15 17:23:00,
2013-06-15 13:28:00,77.1,61.2,30.00,SW,236,2.0,2.0,58,0.00,,,0.02,770,Wunderground v.1.15,2013-06-15 17:28:00,
2013-06-15 13:38:00,77.2,59.3,30.00,SSW,196,3.0,3.0,54,0.00,,,0.02,378,Wunderground v.1.15,2013-06-15 17:38:00,
2013-06-15 13:43:00,76.9,61.5,30.00,WSW,252,4.0,4.0,59,0.00,,,0.02,329,Wunderground v.1.15,2013-06-15 17:43:00,
2013-06-15 13:48:00,76.8,61.9,30.00,WSW,250,2.0,2.0,60,0.00,,,0.02,295,Wunderground v.1.15,2013-06-15 17:48:00,
2013-06-15 13:58:00,76.5,61.6,30.00,South,180,2.0,3.0,60,0.00,,,0.02,246,Wunderground v.1.15,2013-06-15 17:58:00,
2013-06-15 14:08:00,75.9,61.0,30.00,South,182,2.0,3.0,60,0.00,,,0.02,265,Wunderground v.1.15,2013-06-15 18:08:00,
2013-06-15 14:13:00,75.9,61.5,30.00,SSW,194,2.0,3.0,61,0.00,,,0.02,380,Wunderground v.1.15,2013-06-15 18:13:00,
2013-06-15 14:23:00,76.5,61.6,30.00,WSW,237,1.0,2.0,60,0.00,,,0.02,478,Wunderground v.1.15,2013-06-15 18:23:00,
2013-06-15 14:28:00,76.7,60.3,30.00,West,279,2.0,5.0,57,0.00,,,0.02,425,Wunderground v.1.15,2013-06-15 18:28:00,
2013-06-15 14:38:00,76.9,60.5,30.00,SW,225,2.0,2.0,57,0.00,,,0.02,594,Wunderground v.1.15,2013-06-15 18:38:00,
2013-06-15 14:48:00,77.6,62.1,30.00,WSW,241,2.0,8.0,59,0.00,,,0.02,533,Wunderground v.1.15,2013-06-15 18:48:00,
2013-06-15 14:53:00,77.5,63.5,30.00,WSW,257,4.0,8.0,62,0.00,,,0.02,520,Wunderground v.1.15,2013-06-15 18:53:00,
2013-06-15 14:58:00,77.6,61.7,30.00,South,178,4.0,4.0,58,0.00,,,0.02,410,Wunderground v.1.15,2013-06-15 18:58:00,
2013-06-15 15:08:00,77.5,60.6,30.00,SSW,201,4.0,5.0,56,0.00,,,0.02,728,Wunderground v.1.15,2013-06-15 19:08:00,
2013-06-15 15:18:00,77.6,60.2,30.00,SSE,160,4.0,7.0,55,0.00,,,0.02,541,Wunderground v.1.15,2013-06-15 19:18:00,
2013-06-15 15:28:00,77.7,62.7,30.00,SW,215,4.0,4.0,60,0.00,,,0.02,359,Wunderground v.1.15,2013-06-15 19:28:00,
2013-06-15 15:33:00,77.7,61.7,30.00,WSW,252,2.0,7.0,58,0.00,,,0.02,311,Wunderground v.1.15,2013-06-15 19:33:00,
2013-06-15 15:38:00,77.4,61.9,30.00,SW,216,2.0,7.0,59,0.00,,,0.02,308,Wunderground v.1.15,2013-06-15 19:38:00,
2013-06-15 15:43:00,76.9,61.5,30.00,WSW,250,4.0,7.0,59,0.00,,,0.02,318,Wunderground v.1.15,2013-06-15 19:43:00,
2013-06-15 15:48:00,76.7,61.3,30.00,SSW,205,4.0,4.0,59,0.00,,,0.02,309,Wunderground v.1.15,2013-06-15 19:48:00,
2013-06-15 15:53:00,76.6,62.1,30.00,SW,218,5.0,8.0,61,0.00,,,0.02,306,Wunderground v.1.15,2013-06-15 19:53:00,
2013-06-15 15:58:00,76.3,61.9,30.00,West,267,6.0,7.0,61,0.00,,,0.02,364,Wunderground v.1.15,2013-06-15 19:58:00,
2013-06-15 16:08:00,76.4,62.4,30.00,SW,226,5.0,5.0,62,0.00,,,0.02,346,Wunderground v.1.15,2013-06-15 20:08:00,
2013-06-15 16:13:00,76.4,63.3,30.00,SSW,200,5.0,5.0,64,0.00,,,0.02,450,Wunderground v.1.15,2013-06-15 20:13:00,
2013-06-15 16:23:00,77.0,63.0,29.99,South,190,3.0,6.0,62,0.00,,,0.02,429,Wunderground v.1.15,2013-06-15 20:23:00,
2013-06-15 16:33:00,76.4,62.4,29.99,SSW,209,6.0,12.0,62,0.00,,,0.02,230,Wunderground v.1.15,2013-06-15 20:33:00,
2013-06-15 16:38:00,76.1,62.6,29.99,SSW,203,4.0,4.0,63,0.00,,,0.02,156,Wunderground v.1.15,2013-06-15 20:38:00,
2013-06-15 16:48:00,75.5,62.0,29.99,WSW,243,4.0,12.0,63,0.00,,,0.02,70,Wunderground v.1.15,2013-06-15 20:48:00,
2013-06-15 16:58:00,74.9,62.8,29.99,SSW,195,3.0,3.0,66,0.00,,,0.02,77,Wunderground v.1.15,2013-06-15 20:58:00,
2013-06-15 17:08:00,74.5,62.4,29.99,SW,236,4.0,4.0,66,0.00,,,0.02,116,Wunderground v.1.15,2013-06-15 21:08:00,
2013-06-15 17:13:00,74.4,62.3,29.99,SSW,207,3.0,4.0,66,0.00,,,0.02,135,Wunderground v.1.15,2013-06-15 21:13:00,
2013-06-15 17:23:00,74.2,63.0,30.00,WSW,238,3.0,3.0,68,0.00,,,0.02,162,Wunderground v.1.15,2013-06-15 21:23:00,
2013-06-15 17:33:00,73.4,63.8,30.00,WSW,239,3.0,16.0,72,0.00,,,0.03,186,Wunderground v.1.15,2013-06-15 21:33:00,
2013-06-15 17:38:00,73.0,63.8,29.99,SW,231,3.0,16.0,73,0.00,,,0.03,225,Wunderground v.1.15,2013-06-15 21:38:00,
2013-06-15 17:48:00,72.8,64.8,29.99,SW,225,1.0,16.0,76,0.00,,,0.03,181,Wunderground v.1.15,2013-06-15 21:48:00,
2013-06-15 17:53:00,72.6,64.2,29.99,SW,225,2.0,16.0,75,0.00,,,0.03,181,Wunderground v.1.15,2013-06-15 21:53:00,
2013-06-15 17:58:00,72.5,64.5,29.99,SSW,208,4.0,4.0,76,0.00,,,0.03,211,Wunderground v.1.15,2013-06-15 21:58:00,
2013-06-15 18:03:00,72.3,64.3,29.99,SW,217,5.0,5.0,76,0.00,,,0.03,239,Wunderground v.1.15,2013-06-15 22:03:00,
2013-06-15 18:08:00,72.2,64.6,29.99,SW,226,6.0,6.0,77,0.00,,,0.03,186,Wunderground v.1.15,2013-06-15 22:08:00,
2013-06-15 18:13:00,72.1,64.1,29.99,SW,231,5.0,6.0,76,0.00,,,0.03,167,Wunderground v.1.15,2013-06-15 22:13:00,
2013-06-15 18:18:00,71.8,64.2,29.98,SW,215,4.0,4.0,77,0.00,,,0.03,144,Wunderground v.1.15,2013-06-15 22:18:00,
2013-06-15 18:23:00,71.7,64.1,29.98,West,271,3.0,4.0,77,0.00,,,0.03,137,Wunderground v.1.15,2013-06-15 22:23:00,
2013-06-15 18:33:00,71.4,64.2,29.98,SW,221,3.0,7.0,78,0.00,,,0.03,144,Wunderground v.1.15,2013-06-15 22:33:00,
2013-06-15 18:38:00,71.3,64.1,29.98,WSW,250,3.0,3.0,78,0.00,,,0.03,156,Wunderground v.1.15,2013-06-15 22:38:00,
2013-06-15 18:48:00,71.1,63.5,29.97,WSW,247,3.0,10.0,77,0.00,,,0.03,142,Wunderground v.1.15,2013-06-15 22:48:00,
2013-06-15 18:58:00,71.0,63.4,29.97,SW,229,6.0,6.0,77,0.00,,,0.03,98,Wunderground v.1.15,2013-06-15 22:58:00,
2013-06-15 19:03:00,70.9,63.0,29.97,SW,225,5.0,6.0,76,0.00,,,0.03,90,Wunderground v.1.15,2013-06-15 23:03:00,
2013-06-15 19:13:00,70.8,63.2,29.97,WNW,296,3.0,3.0,77,0.00,,,0.03,121,Wunderground v.1.15,2013-06-15 23:13:00,
2013-06-15 19:23:00,70.7,63.5,29.96,WSW,244,3.0,6.0,78,0.00,,,0.03,127,Wunderground v.1.15,2013-06-15 23:23:00,
2013-06-15 19:33:00,70.5,63.7,29.95,WSW,240,5.0,7.0,79,0.00,,,0.03,121,Wunderground v.1.15,2013-06-15 23:33:00,
2013-06-15 19:43:00,70.4,63.6,29.95,WSW,238,5.0,14.0,79,0.00,,,0.03,120,Wunderground v.1.15,2013-06-15 23:43:00,
2013-06-15 19:48:00,70.6,63.8,29.95,WSW,257,4.0,14.0,79,0.00,,,0.03,209,Wunderground v.1.15,2013-06-15 23:48:00,
2013-06-15 19:53:00,70.8,63.6,29.95,WSW,254,4.0,14.0,78,0.00,,,0.03,176,Wunderground v.1.15,2013-06-15 23:53:00,
2013-06-15 19:58:00,70.8,63.6,29.95,WNW,288,3.0,3.0,78,0.00,,,0.03,142,Wunderground v.1.15,2013-06-15 23:58:00,
2013-06-15 20:08:00,70.5,63.3,29.95,West,269,3.0,3.0,78,0.00,,,0.03,97,Wunderground v.1.15,2013-06-16 00:08:00,
2013-06-15 20:18:00,70.2,63.4,29.95,West,262,2.0,2.0,79,0.00,,,0.03,42,Wunderground v.1.15,2013-06-16 00:18:00,
2013-06-15 20:23:00,69.9,63.1,29.95,WNW,291,1.0,2.0,79,0.00,,,0.03,37,Wunderground v.1.15,2013-06-16 00:23:00,
2013-06-15 20:28:00,69.7,62.9,29.95,WNW,291,0.0,0.0,79,0.00,,,0.03,37,Wunderground v.1.15,2013-06-16 00:28:00,
2013-06-15 20:38:00,69.3,62.5,29.95,WNW,284,0.0,11.0,79,0.00,,,0.03,30,Wunderground v.1.15,2013-06-16 00:38:00,
2013-06-15 20:48:00,69.0,62.2,29.95,WNW,284,0.0,11.0,79,0.00,,,0.03,30,Wunderground v.1.15,2013-06-16 00:48:00,
2013-06-15 20:53:00,68.8,62.4,29.95,WNW,284,0.0,11.0,80,0.00,,,0.03,26,Wunderground v.1.15,2013-06-16 00:53:00,
2013-06-15 20:58:00,68.7,62.3,29.95,WNW,284,0.0,0.0,80,0.00,,,0.03,19,Wunderground v.1.15,2013-06-16 00:58:00,
2013-06-15 21:08:00,68.5,62.4,29.95,WNW,284,0.0,0.0,81,0.00,,,0.03,7,Wunderground v.1.15,2013-06-16 01:08:00,
2013-06-15 21:18:00,67.8,62.1,29.95,WNW,284,0.0,0.0,82,0.00,,,0.03,0,Wunderground v.1.15,2013-06-16 01:18:00,
2013-06-15 21:23:00,67.4,62.1,29.95,WNW,284,0.0,0.0,83,0.00,,,0.03,0,Wunderground v.1.15,2013-06-16 01:23:00,
2013-06-15 21:28:00,67.0,62.0,29.95,WNW,284,0.0,0.0,84,0.00,,,0.03,0,Wunderground v.1.15,2013-06-16 01:28:00,
2013-06-15 21:33:00,66.6,61.6,29.95,WNW,284,0.0,7.0,84,0.00,,,0.03,0,Wunderground v.1.15,2013-06-16 01:33:00,
2013-06-15 21:38:00,66.3,61.7,29.95,WNW,284,0.0,7.0,85,0.00,,,0.03,0,Wunderground v.1.15,2013-06-16 01:38:00,
2013-06-15 21:48:00,65.6,61.6,29.95,WNW,284,0.0,7.0,87,0.00,,,0.03,0,Wunderground v.1.15,2013-06-16 01:48:00,
2013-06-15 21:53:00,65.4,61.8,29.95,WNW,284,0.0,7.0,88,0.00,,,0.03,0,Wunderground v.1.15,2013-06-16 01:53:00,
2013-06-15 21:58:00,65.0,61.4,29.95,WNW,284,0.0,0.0,88,0.00,,,0.03,0,Wunderground v.1.15,2013-06-16 01:58:00,
2013-06-15 22:08:00,64.4,61.1,29.94,WNW,284,0.0,0.0,89,0.00,,,0.03,0,Wunderground v.1.15,2013-06-16 02:08:00,
2013-06-15 22:13:00,64.1,60.8,29.94,WNW,284,0.0,0.0,89,0.00,,,0.03,0,Wunderground v.1.15,2013-06-16 02:13:00,
2013-06-15 22:23:00,63.8,60.8,29.95,WNW,284,0.0,0.0,90,0.00,,,0.03,0,Wunderground v.1.15,2013-06-16 02:23:00,
2013-06-15 22:33:00,63.7,61.0,29.96,WNW,284,0.0,0.0,91,0.00,,,0.03,0,Wunderground v.1.15,2013-06-16 02:33:00,
2013-06-15 22:43:00,63.5,60.8,29.95,WNW,284,0.0,0.0,91,0.00,,,0.03,0,Wunderground v.1.15,2013-06-16 02:43:00,
2013-06-15 22:53:00,63.4,61.0,29.95,WNW,284,0.0,0.0,92,0.00,,,0.03,0,Wunderground v.1.15,2013-06-16 02:53:00,
2013-06-15 22:58:00,63.2,60.8,29.95,WNW,284,0.0,0.0,92,0.00,,,0.03,0,Wunderground v.1.15,2013-06-16 02:58:00,
2013-06-15 23:08:00,62.8,60.4,29.94,WNW,284,0.0,0.0,92,0.00,,,0.03,0,Wunderground v.1.15,2013-06-16 03:08:00,
2013-06-15 23:13:00,62.9,60.5,29.94,WNW,284,0.0,0.0,92,0.00,,,0.03,0,Wunderground v.1.15,2013-06-16 03:13:00,
2013-06-15 23:23:00,63.1,61.0,29.93,WNW,284,0.0,0.0,93,0.00,,,0.03,0,Wunderground v.1.15,2013-06-16 03:23:00,
2013-06-15 23:28:00,63.1,61.0,29.93,WNW,284,0.0,0.0,93,0.00,,,0.03,0,Wunderground v.1.15,2013-06-16 03:28:00,
2013-06-15 23:38:00,63.4,61.3,29.94,WNW,284,0.0,0.0,93,0.00,,,0.03,0,Wunderground v.1.15,2013-06-16 03:38:00,
2013-06-15 23:48:00,63.4,61.0,29.94,WNW,284,0.0,0.0,92,0.00,,,0.03,0,Wunderground v.1.15,2013-06-16 03:48:00,
2013-06-15 23:53:00,63.4,61.0,29.93,WNW,284,0.0,0.0,92,0.00,,,0.03,0,Wunderground v.1.15,2013-06-16 03:53:00,
2013-06-15 23:58:00,63.5,61.1,29.93,WNW,284,0.0,0.0,92,0.00,,,0.03,0,Wunderground v.1.15,2013-06-16 03:58:00,